Year,Month,Day,Hour,Minute,Value (Times are PST for temperature in C)
2005,05,22,00,00,9.70
2005,05,22,00,01,9.70
2005,05,22,00,02,9.70
2005,05,22,00,03,9.70
2005,05,22,00,05,9.80
2005,05,22,00,06,9.80
2005,05,22,00,07,9.90
2005,05,22,00,08,9.90
2005,05,22,00,09,9.90
2005,05,22,00,10,9.90
2005,05,22,00,11,9.90
2005,05,22,00,12,9.90
2005,05,22,00,13,10.10
2005,05,22,00,14,10.10
2005,05,22,00,21,10.10
2005,05,22,00,24,9.90
2005,05,22,00,25,9.90
2005,05,22,00,26,9.90
2005,05,22,00,27,9.80
2005,05,22,00,28,9.80
2005,05,22,00,29,9.80
2005,05,22,00,30,9.70
2005,05,22,00,31,9.70
2005,05,22,00,32,9.70
2005,05,22,00,33,9.70
2005,05,22,00,34,9.60
2005,05,22,00,35,9.60
2005,05,22,00,36,9.50
2005,05,22,00,37,9.50
2005,05,22,00,38,9.40
2005,05,22,00,39,9.40
2005,05,22,00,40,9.40
2005,05,22,00,41,9.30
2005,05,22,00,42,9.30
2005,05,22,00,43,9.20
2005,05,22,00,44,9.20
2005,05,22,00,45,9.20
2005,05,22,00,46,9.20
2005,05,22,00,47,9.10
2005,05,22,00,48,9.10
2005,05,22,00,49,9.00
2005,05,22,00,50,9.00
2005,05,22,00,51,9.00
2005,05,22,00,52,8.90
2005,05,22,00,53,8.90
2005,05,22,00,54,8.90
2005,05,22,00,55,8.90
2005,05,22,00,56,8.90
2005,05,22,00,57,9.00
2005,05,22,00,58,9.00
2005,05,22,00,59,8.90
2005,05,22,01,00,8.90
2005,05,22,01,01,8.90
2005,05,22,01,02,8.90
2005,05,22,01,03,9.00
2005,05,22,01,04,9.00
2005,05,22,01,05,9.10
2005,05,22,01,06,9.20
2005,05,22,01,07,9.30
2005,05,22,01,08,9.40
2005,05,22,01,09,9.50
2005,05,22,01,10,9.60
2005,05,22,01,11,9.70
2005,05,22,01,12,9.70
2005,05,22,01,13,9.70
2005,05,22,01,14,9.70
2005,05,22,01,15,9.80
2005,05,22,01,16,9.80
2005,05,22,01,17,9.80
2005,05,22,01,18,9.80
2005,05,22,01,19,9.80
2005,05,22,01,20,9.80
2005,05,22,01,21,9.80
2005,05,22,01,22,9.90
2005,05,22,01,23,9.90
2005,05,22,01,24,9.90
2005,05,22,01,25,9.90
2005,05,22,01,26,9.90
2005,05,22,01,27,9.90
2005,05,22,01,28,9.90
2005,05,22,01,29,9.90
2005,05,22,01,30,9.90
2005,05,22,01,31,9.90
2005,05,22,01,32,9.90
2005,05,22,01,33,9.90
2005,05,22,01,34,9.90
2005,05,22,01,35,9.90
2005,05,22,01,36,9.90
2005,05,22,01,37,9.80
2005,05,22,01,38,9.80
2005,05,22,01,39,9.70
2005,05,22,01,40,9.70
2005,05,22,01,41,9.60
2005,05,22,01,42,9.40
2005,05,22,01,43,9.30
2005,05,22,01,44,9.20
2005,05,22,01,45,9.10
2005,05,22,01,46,8.90
2005,05,22,01,47,8.80
2005,05,22,01,48,8.70
2005,05,22,01,49,8.70
2005,05,22,01,50,8.60
2005,05,22,01,51,8.50
2005,05,22,01,52,8.50
2005,05,22,01,53,8.50
2005,05,22,01,54,8.40
2005,05,22,01,55,8.40
2005,05,22,01,56,8.40
2005,05,22,01,57,8.30
2005,05,22,01,58,8.30
2005,05,22,01,59,8.30
2005,05,22,02,00,8.30
2005,05,22,02,01,8.30
2005,05,22,02,02,8.20
2005,05,22,02,03,8.20
2005,05,22,02,04,8.20
2005,05,22,02,05,8.20
2005,05,22,02,06,8.20
2005,05,22,02,07,8.20
2005,05,22,02,08,8.10
2005,05,22,02,09,8.10
2005,05,22,02,10,8.20
2005,05,22,02,11,8.20
2005,05,22,02,12,8.20
2005,05,22,02,13,8.20
2005,05,22,02,14,8.20
2005,05,22,02,15,8.20
2005,05,22,02,16,8.20
2005,05,22,02,17,8.30
2005,05,22,02,18,8.30
2005,05,22,02,19,8.30
2005,05,22,02,20,8.30
2005,05,22,02,21,8.30
2005,05,22,02,22,8.40
2005,05,22,02,23,8.40
2005,05,22,02,24,8.40
2005,05,22,02,25,8.40
2005,05,22,02,26,8.40
2005,05,22,02,27,8.40
2005,05,22,02,28,8.40
2005,05,22,02,29,8.30
2005,05,22,02,30,8.30
2005,05,22,02,31,8.30
2005,05,22,02,32,8.30
2005,05,22,02,33,8.20
2005,05,22,02,34,8.20
2005,05,22,02,35,8.20
2005,05,22,02,36,8.20
2005,05,22,02,37,8.20
2005,05,22,02,38,8.20
2005,05,22,02,39,8.20
2005,05,22,02,40,8.20
2005,05,22,02,41,8.20
2005,05,22,02,42,8.20
2005,05,22,02,43,8.20
2005,05,22,02,44,8.20
2005,05,22,02,45,8.20
2005,05,22,02,46,8.20
2005,05,22,02,47,8.10
2005,05,22,02,48,8.10
2005,05,22,02,49,8.10
2005,05,22,02,50,8.00
2005,05,22,02,51,8.00
2005,05,22,02,52,8.00
2005,05,22,02,53,8.00
2005,05,22,02,54,8.00
2005,05,22,02,55,7.90
2005,05,22,02,56,7.90
2005,05,22,02,57,7.90
2005,05,22,02,58,8.00
2005,05,22,02,59,8.00
2005,05,22,03,00,8.00
2005,05,22,03,01,8.10
2005,05,22,03,02,8.10
2005,05,22,03,03,8.10
2005,05,22,03,04,8.20
2005,05,22,03,05,8.20
2005,05,22,03,06,8.10
2005,05,22,03,07,8.10
2005,05,22,03,08,8.10
2005,05,22,03,09,8.10
2005,05,22,03,10,8.00
2005,05,22,03,11,8.00
2005,05,22,03,12,8.00
2005,05,22,03,13,8.00
2005,05,22,03,14,7.90
2005,05,22,03,15,7.90
2005,05,22,03,16,7.90
2005,05,22,03,17,7.90
2005,05,22,03,18,7.90
2005,05,22,03,19,7.90
2005,05,22,03,20,7.90
2005,05,22,03,21,7.80
2005,05,22,03,22,7.80
2005,05,22,03,23,7.80
2005,05,22,03,24,7.80
2005,05,22,03,25,7.80
2005,05,22,03,26,7.80
2005,05,22,03,27,7.80
2005,05,22,03,28,7.70
2005,05,22,03,29,7.70
2005,05,22,03,30,7.70
2005,05,22,03,31,7.70
2005,05,22,03,32,7.80
2005,05,22,03,33,7.80
2005,05,22,03,34,7.80
2005,05,22,03,35,7.80
2005,05,22,03,36,7.80
2005,05,22,03,37,7.80
2005,05,22,03,38,7.80
2005,05,22,03,39,7.80
2005,05,22,03,40,7.80
2005,05,22,03,41,7.80
2005,05,22,03,42,7.80
2005,05,22,03,43,7.80
2005,05,22,03,44,7.80
2005,05,22,03,45,7.80
2005,05,22,03,46,7.80
2005,05,22,03,47,7.80
2005,05,22,03,48,7.80
2005,05,22,03,49,7.80
2005,05,22,03,50,7.80
2005,05,22,03,51,7.80
2005,05,22,03,52,7.80
2005,05,22,03,53,7.80
2005,05,22,03,54,7.80
2005,05,22,03,55,7.80
2005,05,22,03,56,7.80
2005,05,22,03,57,7.80
2005,05,22,03,58,7.90
2005,05,22,03,59,7.90
2005,05,22,04,00,7.90
2005,05,22,04,01,7.90
2005,05,22,04,02,8.00
2005,05,22,04,03,7.90
2005,05,22,04,04,7.90
2005,05,22,04,05,7.80
2005,05,22,04,06,7.80
2005,05,22,04,07,7.80
2005,05,22,04,08,7.80
2005,05,22,04,09,7.80
2005,05,22,04,10,7.80
2005,05,22,04,11,7.80
2005,05,22,04,12,7.80
2005,05,22,04,13,7.70
2005,05,22,04,14,7.70
2005,05,22,04,15,7.70
2005,05,22,04,16,7.70
2005,05,22,04,17,7.60
2005,05,22,04,18,7.60
2005,05,22,04,19,7.60
2005,05,22,04,20,7.60
2005,05,22,04,21,7.50
2005,05,22,04,22,7.50
2005,05,22,04,23,7.50
2005,05,22,04,24,7.40
2005,05,22,04,25,7.40
2005,05,22,04,26,7.30
2005,05,22,04,27,7.30
2005,05,22,04,28,7.30
2005,05,22,04,29,7.30
2005,05,22,04,30,7.30
2005,05,22,04,31,7.30
2005,05,22,04,32,7.30
2005,05,22,04,33,7.30
2005,05,22,04,34,7.30
2005,05,22,04,35,7.30
2005,05,22,04,36,7.30
2005,05,22,04,37,7.40
2005,05,22,04,38,7.50
2005,05,22,04,39,7.60
2005,05,22,04,40,7.70
2005,05,22,04,41,7.70
2005,05,22,04,42,7.70
2005,05,22,04,43,7.80
2005,05,22,04,44,7.80
2005,05,22,04,45,7.80
2005,05,22,04,46,7.80
2005,05,22,04,47,7.80
2005,05,22,04,48,7.80
2005,05,22,04,49,7.90
2005,05,22,04,50,7.90
2005,05,22,04,51,8.00
2005,05,22,04,52,8.00
2005,05,22,04,53,8.10
2005,05,22,04,54,8.10
2005,05,22,04,55,8.10
2005,05,22,04,56,8.20
2005,05,22,04,57,8.20
2005,05,22,04,58,8.20
2005,05,22,04,59,8.20
2005,05,22,05,00,8.20
2005,05,22,05,01,8.10
2005,05,22,05,02,8.10
2005,05,22,05,03,8.10
2005,05,22,05,04,8.10
2005,05,22,05,05,8.10
2005,05,22,05,06,8.10
2005,05,22,05,07,8.00
2005,05,22,05,08,8.00
2005,05,22,05,09,8.10
2005,05,22,05,10,8.10
2005,05,22,05,11,8.10
2005,05,22,05,12,8.10
2005,05,22,05,13,8.20
2005,05,22,05,14,8.20
2005,05,22,05,15,8.20
2005,05,22,05,16,8.30
2005,05,22,05,17,8.30
2005,05,22,05,18,8.30
2005,05,22,05,19,8.30
2005,05,22,05,20,8.30
2005,05,22,05,21,8.40
2005,05,22,05,22,8.40
2005,05,22,05,23,8.50
2005,05,22,05,24,8.60
2005,05,22,05,25,8.60
2005,05,22,05,26,8.70
2005,05,22,05,27,8.70
2005,05,22,05,28,8.80
2005,05,22,05,29,8.80
2005,05,22,05,30,8.80
2005,05,22,05,31,8.90
2005,05,22,05,32,8.90
2005,05,22,05,33,8.90
2005,05,22,05,34,8.90
2005,05,22,05,35,8.80
2005,05,22,05,36,8.80
2005,05,22,05,37,8.80
2005,05,22,05,38,8.80
2005,05,22,05,39,8.70
2005,05,22,05,40,8.70
2005,05,22,05,41,8.60
2005,05,22,05,42,8.60
2005,05,22,05,43,8.50
2005,05,22,05,44,8.40
2005,05,22,05,45,8.40
2005,05,22,05,46,8.30
2005,05,22,05,47,8.30
2005,05,22,05,48,8.30
2005,05,22,05,49,8.30
2005,05,22,05,50,8.20
2005,05,22,05,51,8.20
2005,05,22,05,52,8.20
2005,05,22,05,53,8.20
2005,05,22,05,54,8.10
2005,05,22,05,55,8.10
2005,05,22,05,56,8.10
2005,05,22,05,57,8.00
2005,05,22,05,58,8.00
2005,05,22,05,59,8.00
2005,05,22,06,00,8.00
2005,05,22,06,01,8.00
2005,05,22,06,02,8.10
2005,05,22,06,03,8.10
2005,05,22,06,04,8.10
2005,05,22,06,05,8.10
2005,05,22,06,06,8.10
2005,05,22,06,07,8.10
2005,05,22,06,08,8.10
2005,05,22,06,09,8.10
2005,05,22,06,10,8.10
2005,05,22,06,11,8.20
2005,05,22,06,12,8.20
2005,05,22,06,13,8.20
2005,05,22,06,14,8.20
2005,05,22,06,15,8.20
2005,05,22,06,16,8.20
2005,05,22,06,17,8.30
2005,05,22,06,18,8.30
2005,05,22,06,19,8.30
2005,05,22,06,20,8.30
2005,05,22,06,21,8.40
2005,05,22,06,22,8.40
2005,05,22,06,23,8.40
2005,05,22,06,24,8.50
2005,05,22,06,25,8.50
2005,05,22,06,26,8.60
2005,05,22,06,27,8.70
2005,05,22,06,28,8.70
2005,05,22,06,29,8.80
2005,05,22,06,30,8.80
2005,05,22,06,31,8.90
2005,05,22,06,32,8.90
2005,05,22,06,33,9.00
2005,05,22,06,34,9.00
2005,05,22,06,35,9.00
2005,05,22,06,36,9.10
2005,05,22,06,37,9.10
2005,05,22,06,38,9.20
2005,05,22,06,39,9.20
2005,05,22,06,40,9.20
2005,05,22,06,41,9.20
2005,05,22,06,42,9.20
2005,05,22,06,43,9.30
2005,05,22,06,44,9.30
2005,05,22,06,45,9.30
2005,05,22,06,46,9.30
2005,05,22,06,47,9.30
2005,05,22,06,48,9.30
2005,05,22,06,49,9.30
2005,05,22,06,50,9.30
2005,05,22,06,51,9.20
2005,05,22,06,52,9.20
2005,05,22,06,53,9.20
2005,05,22,06,54,9.20
2005,05,22,06,55,9.20
2005,05,22,06,56,9.20
2005,05,22,06,57,9.20
2005,05,22,06,58,9.20
2005,05,22,06,59,9.20
2005,05,22,07,00,9.30
2005,05,22,07,01,9.30
2005,05,22,07,02,9.30
2005,05,22,07,03,9.30
2005,05,22,07,04,9.40
2005,05,22,07,05,9.50
2005,05,22,07,06,9.50
2005,05,22,07,07,9.60
2005,05,22,07,08,9.70
2005,05,22,07,09,9.80
2005,05,22,07,10,9.90
2005,05,22,07,11,10.00
2005,05,22,07,12,10.10
2005,05,22,07,13,10.20
2005,05,22,07,14,10.30
2005,05,22,07,15,10.30
2005,05,22,07,16,10.40
2005,05,22,07,17,10.50
2005,05,22,07,18,10.60
2005,05,22,07,19,10.60
2005,05,22,07,20,10.70
2005,05,22,07,21,10.80
2005,05,22,07,22,10.80
2005,05,22,07,23,10.90
2005,05,22,07,24,10.90
2005,05,22,07,25,11.00
2005,05,22,07,26,11.10
2005,05,22,07,27,11.20
2005,05,22,07,28,11.30
2005,05,22,07,29,11.40
2005,05,22,07,30,11.40
2005,05,22,07,31,11.40
2005,05,22,07,32,11.40
2005,05,22,07,33,11.40
2005,05,22,07,34,11.40
2005,05,22,07,35,11.40
2005,05,22,07,36,11.40
2005,05,22,07,37,11.40
2005,05,22,07,38,11.40
2005,05,22,07,39,11.40
2005,05,22,07,40,11.40
2005,05,22,07,41,11.40
2005,05,22,07,42,11.40
2005,05,22,07,43,11.40
2005,05,22,07,44,11.30
2005,05,22,07,45,11.30
2005,05,22,07,46,11.30
2005,05,22,07,47,11.30
2005,05,22,07,48,11.30
2005,05,22,07,49,11.30
2005,05,22,07,50,11.40
2005,05,22,07,51,11.40
2005,05,22,07,52,11.40
2005,05,22,07,53,11.40
2005,05,22,07,54,11.40
2005,05,22,07,55,11.40
2005,05,22,07,56,11.40
2005,05,22,07,57,11.50
2005,05,22,07,58,11.60
2005,05,22,07,59,11.70
2005,05,22,08,00,11.80
2005,05,22,08,01,11.80
2005,05,22,08,02,11.90
2005,05,22,08,03,12.00
2005,05,22,08,04,12.10
2005,05,22,08,05,12.10
2005,05,22,08,06,12.20
2005,05,22,08,07,12.30
2005,05,22,08,08,12.30
2005,05,22,08,09,12.40
2005,05,22,08,10,12.50
2005,05,22,08,11,12.50
2005,05,22,08,12,12.50
2005,05,22,08,13,12.60
2005,05,22,08,14,12.60
2005,05,22,08,15,12.60
2005,05,22,08,16,12.60
2005,05,22,08,17,12.70
2005,05,22,08,18,12.80
2005,05,22,08,19,12.80
2005,05,22,08,20,12.80
2005,05,22,08,21,12.80
2005,05,22,08,22,12.90
2005,05,22,08,23,12.90
2005,05,22,08,24,12.90
2005,05,22,08,25,13.00
2005,05,22,08,26,13.00
2005,05,22,08,27,13.10
2005,05,22,08,28,13.20
2005,05,22,08,29,13.30
2005,05,22,08,30,13.30
2005,05,22,08,31,13.40
2005,05,22,08,32,13.50
2005,05,22,08,33,13.60
2005,05,22,08,34,13.60
2005,05,22,08,35,13.70
2005,05,22,08,36,13.60
2005,05,22,08,37,13.60
2005,05,22,08,38,13.60
2005,05,22,08,39,13.60
2005,05,22,08,40,13.50
2005,05,22,08,41,13.50
2005,05,22,08,42,13.50
2005,05,22,08,43,13.50
2005,05,22,08,44,13.50
2005,05,22,08,45,13.40
2005,05,22,08,46,13.30
2005,05,22,08,47,13.40
2005,05,22,08,48,13.50
2005,05,22,08,49,13.50
2005,05,22,08,50,13.60
2005,05,22,08,51,13.60
2005,05,22,08,52,13.70
2005,05,22,08,53,13.60
2005,05,22,08,54,13.50
2005,05,22,08,55,13.50
2005,05,22,08,56,13.40
2005,05,22,08,57,13.30
2005,05,22,08,58,13.10
2005,05,22,08,59,13.10
2005,05,22,09,00,13.20
2005,05,22,09,01,13.20
2005,05,22,09,02,13.20
2005,05,22,09,03,13.00
2005,05,22,09,04,12.80
2005,05,22,09,05,12.60
2005,05,22,09,06,12.60
2005,05,22,09,07,12.50
2005,05,22,09,08,12.60
2005,05,22,09,09,12.60
2005,05,22,09,10,12.60
2005,05,22,09,11,12.50
2005,05,22,09,12,12.50
2005,05,22,09,13,12.50
2005,05,22,09,14,12.60
2005,05,22,09,15,12.70
2005,05,22,09,16,12.80
2005,05,22,09,17,12.80
2005,05,22,09,18,12.80
2005,05,22,09,19,12.80
2005,05,22,09,20,12.80
2005,05,22,09,21,12.80
2005,05,22,09,22,12.80
2005,05,22,09,23,12.80
2005,05,22,09,24,12.80
2005,05,22,09,25,12.80
2005,05,22,09,26,12.80
2005,05,22,09,27,12.90
2005,05,22,09,28,13.00
2005,05,22,09,29,13.10
2005,05,22,09,30,13.10
2005,05,22,09,31,13.20
2005,05,22,09,32,13.30
2005,05,22,09,33,13.30
2005,05,22,09,34,13.40
2005,05,22,09,35,13.50
2005,05,22,09,36,13.60
2005,05,22,09,37,13.70
2005,05,22,09,38,13.60
2005,05,22,09,39,13.70
2005,05,22,09,40,13.80
2005,05,22,09,41,13.90
2005,05,22,09,42,13.80
2005,05,22,09,43,13.80
2005,05,22,09,44,13.90
2005,05,22,09,45,13.90
2005,05,22,09,46,13.80
2005,05,22,09,47,13.80
2005,05,22,09,48,13.90
2005,05,22,09,49,13.80
2005,05,22,09,50,13.80
2005,05,22,09,51,13.80
2005,05,22,09,52,13.80
2005,05,22,09,53,13.90
2005,05,22,09,54,13.90
2005,05,22,09,55,13.90
2005,05,22,09,56,14.00
2005,05,22,09,57,14.00
2005,05,22,09,58,13.90
2005,05,22,09,59,13.90
2005,05,22,10,00,14.00
2005,05,22,10,01,14.00
2005,05,22,10,02,13.90
2005,05,22,10,03,14.00
2005,05,22,10,04,14.00
2005,05,22,10,05,14.00
2005,05,22,10,06,14.10
2005,05,22,10,07,14.20
2005,05,22,10,08,14.30
2005,05,22,10,09,14.40
2005,05,22,10,10,14.50
2005,05,22,10,11,14.50
2005,05,22,10,12,14.60
2005,05,22,10,13,14.40
2005,05,22,10,14,14.30
2005,05,22,10,15,14.30
2005,05,22,10,16,14.30
2005,05,22,10,17,14.30
2005,05,22,10,18,14.30
2005,05,22,10,19,14.30
2005,05,22,10,20,14.40
2005,05,22,10,21,14.40
2005,05,22,10,22,14.40
2005,05,22,10,23,14.50
2005,05,22,10,24,14.50
2005,05,22,10,25,14.50
2005,05,22,10,26,14.50
2005,05,22,10,27,14.50
2005,05,22,10,28,14.30
2005,05,22,10,29,14.20
2005,05,22,10,30,14.00
2005,05,22,10,31,13.90
2005,05,22,10,32,13.80
2005,05,22,10,33,13.70
2005,05,22,10,34,13.60
2005,05,22,10,35,13.40
2005,05,22,10,36,13.30
2005,05,22,10,37,13.20
2005,05,22,10,38,13.10
2005,05,22,10,39,12.90
2005,05,22,10,40,12.80
2005,05,22,10,41,12.70
2005,05,22,10,42,12.70
2005,05,22,10,43,12.70
2005,05,22,10,44,12.70
2005,05,22,10,45,12.70
2005,05,22,10,46,12.70
2005,05,22,10,47,12.70
2005,05,22,10,48,12.60
2005,05,22,10,49,12.60
2005,05,22,10,50,12.60
2005,05,22,10,51,12.50
2005,05,22,10,52,12.50
2005,05,22,10,53,12.50
2005,05,22,10,54,12.40
2005,05,22,10,55,12.40
2005,05,22,10,56,12.30
2005,05,22,10,57,12.30
2005,05,22,10,58,12.30
2005,05,22,10,59,12.40
2005,05,22,11,00,12.50
2005,05,22,11,01,12.60
2005,05,22,11,02,12.60
2005,05,22,11,03,12.70
2005,05,22,11,04,12.80
2005,05,22,11,05,12.70
2005,05,22,11,06,12.80
2005,05,22,11,07,12.80
2005,05,22,11,08,12.80
2005,05,22,11,09,12.80
2005,05,22,11,10,12.90
2005,05,22,11,11,12.90
2005,05,22,11,12,13.00
2005,05,22,11,13,13.10
2005,05,22,11,14,13.10
2005,05,22,11,15,13.20
2005,05,22,11,16,13.20
2005,05,22,11,17,13.20
2005,05,22,11,18,13.20
2005,05,22,11,19,13.30
2005,05,22,11,20,13.30
2005,05,22,11,21,13.30
2005,05,22,11,22,13.40
2005,05,22,11,23,13.50
2005,05,22,11,24,13.60
2005,05,22,11,25,13.50
2005,05,22,11,26,13.50
2005,05,22,11,27,13.50
2005,05,22,11,28,13.60
2005,05,22,11,29,13.60
2005,05,22,11,30,13.60
2005,05,22,11,31,13.60
2005,05,22,11,32,13.60
2005,05,22,11,33,13.60
2005,05,22,11,34,13.60
2005,05,22,11,35,13.60
2005,05,22,11,36,13.60
2005,05,22,11,37,13.60
2005,05,22,11,38,13.50
2005,05,22,11,39,13.50
2005,05,22,11,40,13.50
2005,05,22,11,41,13.50
2005,05,22,11,42,13.50
2005,05,22,11,43,13.40
2005,05,22,11,44,13.40
2005,05,22,11,45,13.40
2005,05,22,11,46,13.40
2005,05,22,11,47,13.40
2005,05,22,11,48,13.50
2005,05,22,11,49,13.60
2005,05,22,11,50,13.60
2005,05,22,11,51,13.80
2005,05,22,11,52,13.90
2005,05,22,11,53,14.10
2005,05,22,11,54,14.20
2005,05,22,11,55,14.30
2005,05,22,11,56,14.30
2005,05,22,11,57,14.40
2005,05,22,11,58,14.50
2005,05,22,11,59,14.50
2005,05,22,12,00,14.50
2005,05,22,12,01,14.40
2005,05,22,12,02,14.20
2005,05,22,12,03,14.20
2005,05,22,12,06,14.10
2005,05,22,12,07,14.20
2005,05,22,12,08,14.20
2005,05,22,12,09,14.20
2005,05,22,12,10,14.10
2005,05,22,12,11,14.10
2005,05,22,12,12,14.10
2005,05,22,12,13,14.00
2005,05,22,12,14,14.00
2005,05,22,12,15,13.90
2005,05,22,12,16,13.80
2005,05,22,12,17,13.80
2005,05,22,12,18,13.80
2005,05,22,12,19,13.70
2005,05,22,12,20,13.60
2005,05,22,12,21,13.50
2005,05,22,12,22,13.50
2005,05,22,12,23,13.50
2005,05,22,12,24,13.50
2005,05,22,12,25,13.50
2005,05,22,12,26,13.50
2005,05,22,12,27,13.50
2005,05,22,12,28,13.50
2005,05,22,12,29,13.50
2005,05,22,12,30,13.50
2005,05,22,12,31,13.50
2005,05,22,12,32,13.50
2005,05,22,12,33,13.40
2005,05,22,12,34,13.50
2005,05,22,12,35,13.50
2005,05,22,12,36,13.50
2005,05,22,12,37,13.50
2005,05,22,12,38,13.50
2005,05,22,12,39,13.50
2005,05,22,12,40,13.60
2005,05,22,12,41,13.60
2005,05,22,12,42,13.60
2005,05,22,12,43,13.70
2005,05,22,12,44,13.70
2005,05,22,12,45,13.70
2005,05,22,12,46,13.70
2005,05,22,12,47,13.70
2005,05,22,12,48,13.70
2005,05,22,12,49,13.70
2005,05,22,12,50,13.70
2005,05,22,12,51,13.70
2005,05,22,12,52,13.80
2005,05,22,12,53,13.90
2005,05,22,12,54,13.90
2005,05,22,12,55,13.90
2005,05,22,12,56,14.00
2005,05,22,12,57,14.00
2005,05,22,12,58,14.00
2005,05,22,12,59,14.00
2005,05,22,13,00,14.00
2005,05,22,13,01,14.00
2005,05,22,13,02,14.00
2005,05,22,13,03,14.00
2005,05,22,13,04,13.90
2005,05,22,13,05,13.90
2005,05,22,13,06,13.80
2005,05,22,13,07,13.80
2005,05,22,13,08,13.80
2005,05,22,13,09,13.80
2005,05,22,13,10,13.80
2005,05,22,13,11,13.70
2005,05,22,13,12,13.70
2005,05,22,13,13,13.70
2005,05,22,13,14,13.70
2005,05,22,13,15,13.60
2005,05,22,13,16,13.60
2005,05,22,13,17,13.60
2005,05,22,13,18,13.60
2005,05,22,13,19,13.60
2005,05,22,13,20,13.60
2005,05,22,13,21,13.60
2005,05,22,13,22,13.70
2005,05,22,13,23,13.70
2005,05,22,13,24,13.80
2005,05,22,13,25,13.90
2005,05,22,13,26,14.00
2005,05,22,13,27,14.00
2005,05,22,13,28,14.00
2005,05,22,13,29,14.10
2005,05,22,13,30,14.00
2005,05,22,13,31,14.00
2005,05,22,13,32,14.00
2005,05,22,13,33,14.00
2005,05,22,13,34,13.90
2005,05,22,13,35,13.80
2005,05,22,13,36,13.80
2005,05,22,13,37,13.80
2005,05,22,13,38,13.70
2005,05,22,13,39,13.70
2005,05,22,13,40,13.70
2005,05,22,13,41,13.70
2005,05,22,13,42,13.70
2005,05,22,13,43,13.70
2005,05,22,13,44,13.70
2005,05,22,13,45,13.60
2005,05,22,13,46,13.60
2005,05,22,13,47,13.60
2005,05,22,13,48,13.60
2005,05,22,13,49,13.50
2005,05,22,13,50,13.50
2005,05,22,13,51,13.50
2005,05,22,13,52,13.50
2005,05,22,13,53,13.50
2005,05,22,13,54,13.60
2005,05,22,13,55,13.60
2005,05,22,13,56,13.60
2005,05,22,13,57,13.60
2005,05,22,13,58,13.60
2005,05,22,13,59,13.60
2005,05,22,14,00,13.60
2005,05,22,14,01,13.50
2005,05,22,14,02,13.50
2005,05,22,14,03,13.40
2005,05,22,14,04,13.40
2005,05,22,14,05,13.40
2005,05,22,14,06,13.40
2005,05,22,14,07,13.40
2005,05,22,14,08,13.50
2005,05,22,14,09,13.60
2005,05,22,14,10,13.70
2005,05,22,14,11,13.70
2005,05,22,14,12,13.70
2005,05,22,14,13,13.70
2005,05,22,14,14,13.70
2005,05,22,14,15,13.60
2005,05,22,14,16,13.60
2005,05,22,14,17,13.60
2005,05,22,14,18,13.50
2005,05,22,14,19,13.50
2005,05,22,14,20,13.40
2005,05,22,14,21,13.40
2005,05,22,14,22,13.30
2005,05,22,14,23,13.30
2005,05,22,14,24,13.20
2005,05,22,14,25,13.20
2005,05,22,14,26,13.20
2005,05,22,14,27,13.20
2005,05,22,14,28,13.30
2005,05,22,14,29,13.20
2005,05,22,14,30,13.20
2005,05,22,14,31,13.20
2005,05,22,14,32,13.10
2005,05,22,14,33,13.00
2005,05,22,14,34,13.00
2005,05,22,14,35,13.00
2005,05,22,14,36,12.90
2005,05,22,14,37,13.00
2005,05,22,14,38,13.00
2005,05,22,14,39,13.00
2005,05,22,14,40,13.00
2005,05,22,14,41,13.00
2005,05,22,14,42,13.10
2005,05,22,14,43,13.10
2005,05,22,14,44,13.10
2005,05,22,14,45,13.10
2005,05,22,14,46,13.00
2005,05,22,14,47,13.00
2005,05,22,14,48,12.90
2005,05,22,14,49,12.80
2005,05,22,14,50,12.80
2005,05,22,14,51,12.80
2005,05,22,14,52,12.80
2005,05,22,14,53,12.80
2005,05,22,14,54,12.80
2005,05,22,14,55,12.90
2005,05,22,14,56,12.90
2005,05,22,14,57,12.90
2005,05,22,14,58,13.00
2005,05,22,14,59,13.00
2005,05,22,15,00,13.00
2005,05,22,15,01,13.00
2005,05,22,15,02,13.10
2005,05,22,15,03,13.10
2005,05,22,15,04,13.10
2005,05,22,15,05,13.20
2005,05,22,15,06,13.20
2005,05,22,15,07,13.30
2005,05,22,15,08,13.30
2005,05,22,15,09,13.30
2005,05,22,15,10,13.40
2005,05,22,15,11,13.50
2005,05,22,15,12,13.60
2005,05,22,15,13,13.70
2005,05,22,15,14,13.80
2005,05,22,15,15,13.90
2005,05,22,15,16,14.00
2005,05,22,15,17,14.10
2005,05,22,15,18,14.20
2005,05,22,15,19,14.20
2005,05,22,15,20,14.30
2005,05,22,15,21,14.40
2005,05,22,15,22,14.40
2005,05,22,15,23,14.50
2005,05,22,15,24,14.40
2005,05,22,15,25,14.30
2005,05,22,15,26,14.20
2005,05,22,15,27,14.20
2005,05,22,15,28,14.20
2005,05,22,15,29,14.20
2005,05,22,15,30,14.20
2005,05,22,15,31,14.20
2005,05,22,15,32,14.20
2005,05,22,15,33,14.20
2005,05,22,15,34,14.20
2005,05,22,15,35,14.20
2005,05,22,15,36,14.20
2005,05,22,15,37,14.10
2005,05,22,15,38,14.10
2005,05,22,15,39,14.00
2005,05,22,15,40,14.00
2005,05,22,15,41,14.00
2005,05,22,15,42,14.00
2005,05,22,15,43,14.00
2005,05,22,15,44,13.90
2005,05,22,15,45,13.90
2005,05,22,15,46,13.90
2005,05,22,15,47,13.90
2005,05,22,15,48,13.90
2005,05,22,15,49,13.90
2005,05,22,15,50,13.90
2005,05,22,15,51,13.90
2005,05,22,15,52,13.80
2005,05,22,15,53,13.80
2005,05,22,15,54,13.70
2005,05,22,15,55,13.80
2005,05,22,15,56,13.80
2005,05,22,15,57,13.80
2005,05,22,15,58,13.90
2005,05,22,15,59,13.90
2005,05,22,16,00,14.00
2005,05,22,16,01,14.00
2005,05,22,16,02,13.90
2005,05,22,16,03,13.90
2005,05,22,16,04,13.80
2005,05,22,16,05,13.80
2005,05,22,16,06,13.80
2005,05,22,16,07,13.80
2005,05,22,16,08,13.90
2005,05,22,16,09,14.00
2005,05,22,16,10,14.10
2005,05,22,16,11,14.20
2005,05,22,16,12,14.30
2005,05,22,16,13,14.40
2005,05,22,16,14,14.50
2005,05,22,16,15,14.60
2005,05,22,16,16,14.60
2005,05,22,16,17,14.60
2005,05,22,16,18,14.60
2005,05,22,16,19,14.70
2005,05,22,16,20,14.70
2005,05,22,16,21,14.80
2005,05,22,16,22,14.80
2005,05,22,16,23,14.80
2005,05,22,16,24,14.70
2005,05,22,16,25,14.70
2005,05,22,16,26,14.80
2005,05,22,16,27,14.80
2005,05,22,16,28,14.80
2005,05,22,16,29,14.80
2005,05,22,16,30,14.80
2005,05,22,16,31,14.90
2005,05,22,16,32,15.00
2005,05,22,16,33,15.00
2005,05,22,16,34,15.10
2005,05,22,16,35,15.10
2005,05,22,16,36,15.20
2005,05,22,16,37,15.30
2005,05,22,16,38,15.30
2005,05,22,16,39,15.30
2005,05,22,16,40,15.20
2005,05,22,16,41,15.20
2005,05,22,16,42,15.20
2005,05,22,16,43,15.20
2005,05,22,16,44,15.10
2005,05,22,16,45,15.00
2005,05,22,16,46,14.90
2005,05,22,16,47,14.80
2005,05,22,16,48,14.80
2005,05,22,16,49,14.80
2005,05,22,16,50,14.80
2005,05,22,16,51,14.70
2005,05,22,16,52,14.80
2005,05,22,16,53,14.70
2005,05,22,16,54,14.60
2005,05,22,16,55,14.50
2005,05,22,16,56,14.40
2005,05,22,16,57,14.30
2005,05,22,16,58,14.20
2005,05,22,16,59,14.20
2005,05,22,17,00,14.10
2005,05,22,17,01,14.00
2005,05,22,17,02,13.90
2005,05,22,17,03,13.90
2005,05,22,17,04,13.90
2005,05,22,17,05,13.80
2005,05,22,17,06,13.80
2005,05,22,17,07,13.80
2005,05,22,17,08,13.80
2005,05,22,17,09,13.80
2005,05,22,17,10,13.90
2005,05,22,17,11,13.90
2005,05,22,17,12,14.00
2005,05,22,17,13,14.00
2005,05,22,17,14,14.00
2005,05,22,17,15,14.00
2005,05,22,17,16,14.00
2005,05,22,17,17,14.10
2005,05,22,17,18,14.10
2005,05,22,17,19,14.10
2005,05,22,17,20,14.00
2005,05,22,17,21,13.90
2005,05,22,17,22,13.80
2005,05,22,17,23,13.70
2005,05,22,17,24,13.60
2005,05,22,17,25,13.60
2005,05,22,17,26,13.60
2005,05,22,17,27,13.50
2005,05,22,17,28,13.50
2005,05,22,17,29,13.40
2005,05,22,17,30,13.30
2005,05,22,17,31,13.30
2005,05,22,17,32,13.20
2005,05,22,17,33,13.20
2005,05,22,17,34,13.20
2005,05,22,17,35,13.20
2005,05,22,17,36,13.20
2005,05,22,17,37,13.30
2005,05,22,17,38,13.30
2005,05,22,17,39,13.30
2005,05,22,17,40,13.30
2005,05,22,17,41,13.40
2005,05,22,17,42,13.50
2005,05,22,17,43,13.60
2005,05,22,17,44,13.70
2005,05,22,17,45,13.70
2005,05,22,17,46,13.80
2005,05,22,17,47,13.80
2005,05,22,17,48,13.80